Simultaneous Nadir Overpasses (SNOs) Predictions

Prediction of SNOs between AQUA and NPP Satellite Orbit:

Table of predicted SNOs for the next 14.0 days since TLE Epoch: 3/4/2017
Index Date (AQUA) Time (AQUA) Lat,Lon (AQUA) SZA (AQUA ) Date (NPP) Time (NPP) Lat,Lon (NPP) SZA (NPP ) Distance(km) Time Diff (sec)
1 03/05/2017 14:05:25 -75.69, 26.86 76.18 03/05/2017 14:04:43 -75.69, 26.83 76.13 1.08 42
2 03/05/2017 14:54:28 76.78,-161.99 102.55 03/05/2017 14:55:03 76.78,-162.00 102.53 0.16 35
3 03/08/2017 06:21:48 -76.07, 143.88 77.66 03/08/2017 06:21:28 -76.07, 143.87 77.64 0.40 20
4 03/08/2017 07:10:52 77.09, -44.97 101.13 03/08/2017 07:11:49 77.09, -44.94 101.07 0.87 57
5 03/10/2017 21:49:51 73.00, 84.50 104.68 03/10/2017 21:48:37 73.08, 84.21 104.77 12.88 74
6 03/10/2017 22:38:11 -76.44, -99.05 79.15 03/10/2017 22:38:13 -76.44, -99.03 79.16 0.53 2
7 03/10/2017 23:23:10 80.30, 155.97 85.81 03/10/2017 23:24:22 79.61, 153.78 85.45 87.58 72
8 03/13/2017 14:05:25 75.84,-152.71 100.49 03/13/2017 14:04:32 75.85,-152.63 100.52 2.55 53
9 03/13/2017 14:54:33 -76.80, 18.07 80.65 03/13/2017 14:54:57 -76.80, 18.13 80.68 1.69 24
10 03/16/2017 06:21:56 75.81, -36.92 99.45 03/16/2017 06:21:26 75.80, -37.00 99.50 2.18 30




NCC Satellite Simultaneous Nadir Overpasses (SNOs) Prediction Service
